Погода в Дербенте

Погода в Дербенте : погода сейчас, прогноз погоды и архив. Всё, что Вы хотите узнать о погоде в Дербенте!

Поиск расширенной информации на нашем сайте:

Другие новости

Новости СМИ2

Главная страница сайта

Новости сайта

02.10.2013

Напоминаем, что на нашем новом сайте вы можете получить высокодетализированные прогнозы погоды по пунктам России, СНГ и мира (включающие важные для авиации метеовеличины, такие как направление и скорость ветра, видимость, явления погоды, количество и форма облачности, нижняя и верхняя граница облачности), а также ознакомиться с разнообразными материалами по авиационной метеорологии и подборкой полезных ссылок на эту тему.

Сайт Метеоцентр.Азия посвящён разработке технологий оптимизации авиаметеорологического обслуживания, включая проектирование и перспективное создание нескольких автоматизированных авиаметеорологических систем:
- система выпуска высокодетальных прогностических карт явлений погоды для нижнего воздушного пространства по России и ближнему зарубежью;
- система верификации прогнозов TAF (выпускаемых синоптиками официальных АМСГ РФ и ближнего зарубежья) и AUTOTAF (выпускаемых сайтом Метеоцентр.Азия) - выявление ошибок, онлайн-сопоставление с фактической погодой METAR, автоматическое внесение коррективов в прогнозы при резком отклонении фактической погоды от прогноза, подсчёт оправдываемости прогнозов по элементам и в целом;
- система обработки, анализа и отображения авиаметеорологической информации для применения провайдерами метеорологической информации.

Рекомендуем: Смотрите описание зеркало с подсветкой на сайте.

Погода в Дербенте - сегодня

Время (UTC), дата Ветер
(°,м/с) 
Видим.   Явления Облачность Т
(°С)
Тd
(°С)
f(%) Тe
(°С)
Pmin
(гПа)
dP
(гПа)
Po
(мм)
O2
(г/м3)
Тmin Tmax R s Состояние
почвы
09 25.06.17 360 (С) 20000 м    3/0 средняя 
[Ac trans]
+28 +17.9 54 +42  1012.2  0.8  761  274           
12 25.06.17 360 (С) 20000 м    4/3 600 м средняя 
[Sc|Ac trans]
+28.1 +17.5 53 +41  1012.8  0.5  761  274           
15 25.06.17 310 (СЗ) 20000 м  в посл. час ливневой дождь  10/10 300 м кучево-дожд. 
[Cb cap]
+23.1 +18.8 77 +39  1014.2  1.5  762  279    +29     
18 25.06.17 250 (З) 10 км  {ливн. осадки}  8/5 600 м средняя 
[Sc|Ac trans]
+22.7 +17.9 74 +36  1015.7  1.5  763  280           
21 25.06.17 290 (З) 10 км    8/4 600 м средняя 
[Sc|Ac trans]
+23 +16.6 67 +34  1016.8  1.2  764  280           
00 26.06.17 350 (С) 10 км    8/8 600 м 
[Sc]
+22.5 +17.1 72 +34  1016.9  0.1  764  281           
03 26.06.17 320 (СЗ) 20000 м    6/3 600 м средняя 
[Sc|Ac trans]
+22.2 +18.4 79 +37  1018.5  1.6  765  281  +22        влажная 
06 26.06.17 360 (С) 20000 м    9/6 300 м кучево-дожд., средняя 
[Cb cap|Ac trans]
+24.7 +18.6 69 +40  1018.9  0.4  766  279           
09 26.06.17 020 (С) 20000 м    8/3 300 м кучево-дожд., средняя 
[Cb cap|Ac trans]
+25.6 +18 63 +39  1018.7  -0.3  766  278           
12 26.06.17 060 (СВ) 20000 м    9/9 300 м кучево-дожд. 
[Cb cap]
+23.6 +17.5 69 +36  1018.5  -0.1  765  280           
15 26.06.17 110 (В) 20000 м    ясно 
+22.5 +17.4 73 +35  1018  -0.5  765  281    +26.6       
18 26.06.17 170 (Ю) 10 км    ясно 
+21.3 +17.1 77 +33  1017.6  -0.5  765  282           
21 26.06.17 160 (Ю) 10 км    ясно 
+20.3 +17 81 +32  1016.6  -1  764  283           
00 27.06.17 170 (Ю) 10 км    8/5 300 м кучево-дожд., средняя 
[Cb cap|Ac trans]
+20.5 +17.2 81 +33  1015.4  -1.2  763  282           
03 27.06.17 160 (Ю) 20000 м    10/10 300 м кучево-дожд. 
[Cb cap]
+21.3 +17.2 77 +34  1015  -0.4  763  281  +19.9        сухая 
06 27.06.17 120 (ЮВ) 20000 м    3/0 средняя 
[Ac trans]
+24.4 +18.5 70 +39  1014.5  -0.5  762  278           
09 27.06.17 080 (В) 20000 м    9/9 300 м кучево-дожд. 
[Cb cap]
+24.6 +19.9 75 +42  1013.2  -1.3  761  277           
12 27.06.17 020 (С) 20000 м    3/0 средняя 
[Ac trans]
+26.8 +20.5 68 +46  1010.5  -2.8  759  274           
15 27.06.17 010 (С) 20000 м    ясно 
+24.5 +20 76 +43  1009.4  -1  759  276    +26.8       
18 27.06.17 290 (З) 10 км    ясно 
+22.9 +19.4 81 +40  1009.9  0.5  759  278           
21 27.06.17 330 (СЗ) 10 км    ясно 
+22.6 +18.8 79 +38  1010.2  0.3  759  278           
00 28.06.17 280 (З) 10 км    ясно 
+22.3 +18.9 81 +38  1009.8  -0.4  759  278           
03 28.06.17 310 (СЗ) 20000 м    ясно 
+24 +18.9 73 +40  1010.1  0.3  759  277  +22        сухая 
06 28.06.17 100 (В) 20000 м    ясно 
+26 +20.9 74 +46  1010  -0.1  759  274           
09 28.06.17 050 (СВ) 20000 м    ясно 
+27 +21.4 71 +49  1009.9  -0.2  759  273           
Время (UTC), дата Ветер
(°,м/с) 
Видим.   Явления Облачность Т
(°С)
Тd
(°С)
f(%) Тe
(°С)
Pmin
(гПа)
dP
(гПа)
Po
(мм)
O2
(г/м3)
Тmin Tmax R s Состояние
почвы

Для получения пояснительной информации подведите курсор к названию столбца.

ПОГОДА в Дербенте - архив

Всё, что Вы хотите узнать о погоде в Дербенте - удобно и подробно!

Выберите нужную дату (начиная с 1 января 2015* года) и нажмите кнопку "Найти".
Будут отображены архивные сводки погоды по пункту Дербент, начиная с указанной даты.


Отображать данные в формате CSV (для использования в таблицах Excel)


Внимание! Наш архив погоды предназначен исключительно для личного некоммерческого использования в познавательных целях. Если Вам необходимы официальные справки о состоянии погоды (для производственных, юридических, коммерческих и т.п. целей), обращайтесь в органы Росгидромета.

*Примечание: данная дата относится к архиву по метеостанциям СССР (Россия, СНГ, Балтия).
Архив по метеостанциям Зарубежной Европы и Азии (кроме Китая) хранится 10 дней, по другим регионам земного шара (Китай, Африка, Америка, Австралия, Океания) - 1 день.

Дербент - район местоположения метеостанции


Название, широта, долгота, высота метеостанции:
Дербент 42.1°ш. 48.3°д. -19 м над ур. моря [Российская Федерация]

Дополнительная информация

В oтличие oт бoльшинства пoгoдных сайтoв мы публикуем пoдрoбную метеoинфoрмацию в детальнoм прoфессиoнальнoм фoрмате.

Характеристики температуры и влажнoсти вoздуха измеряются на высoте 2 м в тени вдали oт зданий и деревьев.
Скoрoсть ветра измеряется на высoте 10 м (на урoвне рoста челoвека скoрoсть ветра ниже в 1.5-2 раза). Если метеoстанция нахoдится в гoрoде или в лесу, тo скoрoсть ветра занижена на 2-4 м/с пo сравнению с oткрытым местoм. Скoрoсть ветра над акватoриями крупных рек и oзёр, а также на вершинах хoлмoв на 2-5 м/с выше, чем в oбычных услoвиях.
Атмoсфернoе давление в разных тoчках местнoсти мoжет значительнo oтличаться oт давления на метеoстанции, в зависимoсти oт услoвий рельефа (при пoдъёме на 10 м давление пoнижается примернo на 1 мм рт.ст.).